Regional Weather Roundup
Issued by NWS Charleston, SC

Current Version | Previous Version | Text Only | Print | Product List | Glossary Off
Versions: 1 2 3 4 5 6 7 8 9 10 11 12 13 14 15 16 17 18 19 20 21 22 23 24 25 26 27 28 29 30 31 32 33 34 35 36 37 38 39 40 41 42 43 44 45 46 47 48 49 50
207 ASUS42 KCHS 240627 RWRCHS REGIONAL WEATHER ROUNDUP NATIONAL WEATHER SERVICE CHARLESTON SC 200 AM EDT FRI MAR 24 2017 NOTE: "FAIR" INDICATES FEW OR NO CLOUDS BELOW 12,000 FEET WITH NO SIGNIFICANT WEATHER AND/OR OBSTRUCTIONS TO VISIBILITY. NOT ALL STATIONS ARE QUALITY CONTROLLED. USE DATA WITH CAUTION... ESPECIALLY DEWPOINT OBSERVATIONS. SCZ027-030-031-034>040-042>050-240700- ...SOUTHEAST SOUTH CAROLINA... CITY SKY/WX TMP DP RH WIND PRES REMARKS N CHARLESTON CLEAR 48 42 80 NE7 30.47F 6HR MIN TEMP: 48; 6HR MAX TEMP: 53; WATERFRONT PRK N/A 55 50 83 NE10 30.47F JOHNS ISLAND FAIR 55 50 82 NE8 30.46F PINOPOLIS N/A 48 43 81 E7 30.41F MONCKS CORNER FAIR 45 37 76 CALM 30.48F SUMMERVILLE FAIR 45 41 87 CALM 30.49F BEAUFORT MCAS CLEAR 48 43 82 N6 30.47F 6HR MIN TEMP: 47; 6HR MAX TEMP: 57; BEAUFORT ARPT FAIR 50 46 87 NE7 30.46S HILTON HEAD IS CLOUDY N/A N/A N/A N6 30.46S WALTERBORO CLEAR 46 39 76 NE5 30.48F ALLENDALE FAIR 48 37 66 CALM 30.46F ...SOUTHERN MIDLANDS AND PEE DEE... CITY SKY/WX TMP DP RH WIND PRES REMARKS GEORGETOWN FAIR 50 45 81 E6 30.49F KINGSTREE FAIR 39 34 81 CALM 30.50F ORANGEBURG CLEAR 47 37 68 CALM 30.49F 6HR MIN TEMP: 45; 6HR MAX TEMP: 58; BARNWELL FAIR 48 37 66 CALM 30.48F AIKEN FAIR 45 34 65 E6 30.50F MANNING FAIR 39 34 81 CALM 30.49F COLUMBIA MOCLDY 48 35 60 E3 30.49F 6HR MIN TEMP: 48; 6HR MAX TEMP: 58; SUMTER CLEAR 43 34 71 NE3 30.48F 6HR MIN TEMP: 42; 6HR MAX TEMP: 54; 6HR PCP: TRACE; FLORENCE CLEAR 42 34 73 NE3 30.52F 6HR MIN TEMP: 41; 6HR MAX TEMP: 54; MYRTLE BEACH PTCLDY 52 45 77 E8 30.52F N MYRTLE BEACH CLEAR 42 38 85 NE6 30.51F 6HR MIN TEMP: 40; 6HR MAX TEMP: 51; $$ GAZ063-065-086>088-099>101-113>116-118-119-134>141-150-240700- ...SOUTHEAST GEORGIA... CITY SKY/WX TMP DP RH WIND PRES REMARKS SAVANNAH ARPT CLEAR 50 44 80 N6 30.47R 6HR MIN TEMP: 50; 6HR MAX TEMP: 57; HUNTER AAF PTCLDY 54 52 92 CALM 30.43S 6HR MIN TEMP: 54; 6HR MAX TEMP: 56; FORT STEWART CLEAR 51 47 88 N5 30.43S 6HR MIN TEMP: 51; 6HR MAX TEMP: 57; STATESBORO CLEAR 51 44 77 E3 30.46F SYLVANIA CLEAR N/A N/A N/A E6 30.47F CLAXTON FAIR N/A N/A N/A NE8 30.45F ...CSRA...CENTRAL AND FAR SOUTHEAST GEORGIA... CITY SKY/WX TMP DP RH WIND PRES REMARKS THOMSON CLOUDY 53 38 57 S6 30.51S AUGUSTA-BUSH CLOUDY 52 40 63 SE5 30.47F 6HR MIN TEMP: 52; 6HR MAX TEMP: 60; AUGUSTA-DANIEL CLEAR 53 36 52 SE7 30.47F SWAINSBORO FAIR 54 45 71 E7 30.46F VIDALIA CLEAR 54 46 76 E12 30.44F EASTMAN FAIR 55 39 54 SE5 30.46F HAZLEHURST FAIR 54 52 94 E5 30.43S ALMA CLOUDY 52 51 97 CALM 30.43S 6HR MIN TEMP: 52; 6HR MAX TEMP: 63; WAYCROSS CLOUDY 56 56 100 E5 30.42S JESUP FAIR 52 50 93 NE5 30.43F BAXLEY CLOUDY 52 52 100 E5 30.43S BRUNSWICK PTCLDY 57 57 100 NE3 30.43S SAINT SIMONS CLOUDY 61 57 87 NE7 30.42R 6HR MIN TEMP: 59; 6HR MAX TEMP: 61; $$ SCZ027-028-034-036>038-045-046-048>050-GAZ119-141-240700- ...LAKE AND SUPPLEMENTAL COASTAL OBSERVATIONS... STATION/POSITION TIME TEMP WIND PRES WAVE SWELL AIR SEA DIR/SP/G HT/PER HT/PER/DIR (UTC) (F) (DEG/KT/KT) (MB) (FT/S) (FT/S/D) WINYAH BAY 0545 54 70/ 9 1033.0S LAKE MURRAY 0620 49 110/ 4/ 7 1031.8S ACE BASIN NERRS 0545 49 10/ 1 1032.0S FORT PULASKI 0600 58 60 50/ 11/ 15 1031.3 SAPELO ISLAND 0600 59 40/ 5 1030.0 $$ ANZ835-935-AMZ111-154-330-350-352-354-370-450-454-472-240700- ...C-MAN AND BUOY OBSERVATIONS... STATION/POSITION TIME TEMP WIND PRES WAVE SWELL AIR SEA DIR/SP/G HT/PER HT/PER/DIR (UTC) (F) (DEG/KT/KT) (MB) (FT/S) (FT/S/D) BUOY 41004 0550 65 72 100/ 17/ 21 1030.6F 6/ 7 2/ 60/10 BUOY 41008 0550 64 61 110/ 12/ 14 1029.8F 5/ 7 3/ 80/ 7 FOLLY BEACH CMAN 0600 57 60/ 17/ 19 1031.9F CAPERS NEARSHORE 0608 57 60/ 16/ 21 1031.4F FRIPP NEARSHORE 0608 59 59 60/ 14/ 17 1030.9F STATION/POSITION TIME TEMP WIND PRES WAVE SWELL AIR SEA DIR/SP/G HT/PER HT/PER/DIR (UTC) (F) (DEG/KT/KT) (MB) (FT/S) (FT/S/D) 5E ST. MARYS GA 0600 63 N/A 6/ 7 2/ 90/11 FRYING PAN BUOY 0610 61 66 60/ 14/ 17 1032.2 BUOY 41025 0550 54 71 50/ 6/ 10 1035.1R 6/11 7/ 40/11 CAPE LOOKOUT NC 0600 44 20/ 12/ 14 1033.7F BUOY 41002 0550 62 72 60/ 17/ 21 1032.0F 6/10 3/ 30/10 BUOY 41010 NOT AVBL ST AUGUSTINE FL 0600 66 65 90/ 10/ 11 1029.4R $$

USA.gov is the U.S. government's official web portal to all federal, state and local government web resources and services.